Weather History for KAWO - March, 2013

Change the Weather History Date:

Wednesday, March 20, 2013

  Actual Average Record
Temperature  
Mean Temperature 44 °F -  
Max Temperature 53 °F 0 °F 62 °F (1998)
Min Temperature 35 °F - 26 °F (2002)
Degree Days  
Heating Degree Days 21    
Moisture  
Dew Point 38 °F    
Average Humidity 74    
Maximum Humidity 93    
Minimum Humidity 53    
Precipitation  
Precipitation 0.17 in - - ()
Sea Level Pressure  
Sea Level Pressure 29.62 in    
Wind  
Wind Speed 12 mph (South)    
Max Wind Speed 31 mph    
Max Gust Speed 47 mph    
Visibility 10 miles    
Events      
Averages and records for this station are not official NWS values.
T = Trace of Precipitation, MM = Missing Value Source: NWS Daily Summary

Daily Weather History Graph

Daily Weather History Graph

Search for Another Location

Airport or City:

Trip Planner

Search our weather history database for the weather conditions in past years. The results will help you decide how hot, cold, wet, or windy it might be!

Date:

Astronomy

Mar. 20, 2013 Rise Set
Actual Time 7:10 AM PDT 7:21 PM PDT
Civil Twilight 6:39 AM PDT 7:53 PM PDT
Nautical Twilight 6:03 AM PDT 8:29 PM PDT
Astronomical Twilight 5:25 AM PDT 9:07 PM PDT
Moon 12:37 PM PDT (3/20) 3:19 AM PDT (3/20)
Length of Visible Light 13h 13m
Length of Day
12h 11m
First Quarter, 60% of the Moon is Illuminated
Mar 20
First Quarter
Mar 27
Full
Apr 2
Last Quarter
Apr 10
New
Apr 18
First Quarter

Hourly Weather History & Observations

Time (PDT) Temp. Windchill Dew Point Humidity Pressure Visibility Wind Dir Wind Speed Gust Speed Precip Events Conditions
12:15 AM 42.8 °F 39.3 °F 41.0 °F 93% 29.60 in 10.0 mi SE 5.8 mph - 0.01 in   Overcast
12:35 AM 42.8 °F 39.3 °F 39.2 °F 87% 29.60 in 10.0 mi SSW 5.8 mph - 0.01 in   Overcast
12:55 AM 42.8 °F 39.3 °F 39.2 °F 87% 29.59 in 10.0 mi SSW 5.8 mph - 0.02 in   Overcast
1:15 AM 44.6 °F - 39.2 °F 81% 29.58 in 10.0 mi Calm Calm - 0.01 in   Overcast
1:35 AM 44.6 °F 43.1 °F 41.0 °F 87% 29.57 in 10.0 mi SSE 3.5 mph - 0.01 in   Overcast
1:55 AM 46.4 °F 44.3 °F 42.8 °F 87% 29.55 in 10.0 mi SE 4.6 mph - 0.01 in   Overcast
2:15 AM 46.4 °F 42.9 °F 42.8 °F 87% 29.54 in 10.0 mi SE 6.9 mph - N/A   Overcast
2:35 AM 46.4 °F 39.5 °F 42.8 °F 87% 29.54 in 10.0 mi SE 17.3 mph - N/A   Overcast
2:55 AM 46.4 °F 39.5 °F 42.8 °F 87% 29.53 in 10.0 mi ESE 17.3 mph 24.2 mph 0.01 in   Overcast
3:15 AM 48.2 °F - 42.8 °F 82% 29.52 in 10.0 mi ESE 16.1 mph 23.0 mph N/A   Overcast
3:35 AM 48.2 °F - 42.8 °F 82% 29.51 in 10.0 mi ESE 12.7 mph 24.2 mph N/A   Overcast
3:55 AM 48.2 °F - 42.8 °F 82% 29.49 in 10.0 mi East 15.0 mph 20.7 mph N/A   Overcast
4:15 AM 48.2 °F - 42.8 °F 82% 29.48 in 10.0 mi ESE 8.1 mph 17.3 mph N/A   Overcast
4:35 AM 48.2 °F - 42.8 °F 82% 29.48 in 10.0 mi SSE 3.5 mph - N/A   Overcast
4:55 AM 48.2 °F - 42.8 °F 82% 29.45 in 10.0 mi ESE 12.7 mph 16.1 mph N/A   Overcast
5:15 AM 48.2 °F - 42.8 °F 82% 29.45 in 10.0 mi SE 15.0 mph - N/A   Overcast
5:35 AM 48.2 °F - 42.8 °F 82% 29.44 in 10.0 mi ESE 12.7 mph 17.3 mph N/A   Overcast
5:55 AM 48.2 °F - 44.6 °F 87% 29.43 in 10.0 mi ESE 15.0 mph 27.6 mph N/A   Mostly Cloudy
6:15 AM 48.2 °F - 44.6 °F 87% 29.42 in 10.0 mi ESE 15.0 mph - 0.01 in   Mostly Cloudy
6:35 AM 48.2 °F - 44.6 °F 87% 29.41 in 10.0 mi SE 12.7 mph 19.6 mph 0.01 in   Mostly Cloudy
6:55 AM 48.2 °F - 44.6 °F 87% 29.40 in 10.0 mi SE 17.3 mph - 0.03 in   Overcast
7:15 AM 48.2 °F - 44.6 °F 87% 29.40 in 10.0 mi SE 15.0 mph - N/A   Overcast
7:35 AM 48.2 °F - 44.6 °F 87% 29.38 in 10.0 mi SE 19.6 mph 27.6 mph N/A   Overcast
7:55 AM 48.2 °F - 44.6 °F 87% 29.39 in 10.0 mi SE 19.6 mph 26.5 mph 0.01 in   Overcast
8:15 AM 48.2 °F - 44.6 °F 87% 29.39 in 10.0 mi SE 23.0 mph 27.6 mph N/A   Overcast
8:55 AM 48.2 °F - 44.6 °F 87% 29.38 in 10.0 mi SE 23.0 mph 31.1 mph N/A   Overcast
9:15 AM 48.2 °F - 44.6 °F 87% 29.38 in 10.0 mi SE 25.3 mph 36.8 mph N/A   Overcast
9:35 AM 50.0 °F - 44.6 °F 82% 29.39 in 10.0 mi SSE 25.3 mph 33.4 mph N/A   Overcast
9:55 AM 50.0 °F - 46.4 °F 87% 29.41 in 10.0 mi SSE 23.0 mph - N/A   Overcast
10:15 AM 51.8 °F - 44.6 °F 76% 29.42 in 10.0 mi South 24.2 mph 29.9 mph N/A   Overcast
10:35 AM 51.8 °F - 42.8 °F 71% 29.44 in 10.0 mi South 20.7 mph 29.9 mph N/A   Mostly Cloudy
10:55 AM 51.8 °F - 42.8 °F 71% 29.45 in 10.0 mi South 27.6 mph 34.5 mph N/A   Overcast
11:15 AM 51.8 °F - 42.8 °F 71% 29.45 in 10.0 mi South 31.1 mph 38.0 mph 0.01 in   Scattered Clouds
11:35 AM 53.6 °F - 39.2 °F 58% 29.48 in 10.0 mi South 29.9 mph 42.6 mph 0.01 in   Clear
11:55 AM 53.6 °F - 39.2 °F 58% 29.49 in 10.0 mi South 27.6 mph 47.2 mph 0.01 in   Partly Cloudy
1:35 PM 51.8 °F - 37.4 °F 58% 29.57 in 10.0 mi South 25.3 mph 32.2 mph N/A   Unknown
1:55 PM 51.8 °F - 37.4 °F 58% 29.58 in 10.0 mi South 16.1 mph 28.8 mph N/A   Mostly Cloudy
2:15 PM 51.8 °F - 37.4 °F 58% 29.59 in 10.0 mi SSW 24.2 mph 34.5 mph N/A   Overcast
2:35 PM 50.0 °F - 37.4 °F 62% 29.59 in 10.0 mi SSW 20.7 mph 36.8 mph N/A   Overcast
2:55 PM 51.8 °F - 35.6 °F 54% 29.61 in 10.0 mi SSW 27.6 mph 34.5 mph N/A   Overcast
3:15 PM 48.2 °F - 37.4 °F 66% 29.61 in 10.0 mi SSW 24.2 mph 31.1 mph N/A   Overcast
3:35 PM 44.6 °F 38.8 °F 39.2 °F 81% 29.65 in 9.0 mi WSW 11.5 mph 24.2 mph 0.07 in   Overcast
3:55 PM 46.4 °F 43.5 °F 42.8 °F 87% 29.67 in 10.0 mi WNW 5.8 mph - 0.08 in   Overcast
4:15 PM 48.2 °F - 39.2 °F 71% 29.68 in 10.0 mi NW 15.0 mph 19.6 mph N/A   Overcast
4:35 PM 46.4 °F 41.5 °F 37.4 °F 71% 29.70 in 10.0 mi NW 10.4 mph 16.1 mph N/A   Overcast
4:55 PM 46.4 °F 39.5 °F 35.6 °F 66% 29.71 in 10.0 mi NW 17.3 mph 23.0 mph N/A   Mostly Cloudy
5:15 PM 44.6 °F 37.8 °F 33.8 °F 66% 29.72 in 10.0 mi NW 15.0 mph 24.2 mph N/A   Overcast
5:35 PM 44.6 °F 38.4 °F 33.8 °F 66% 29.74 in 10.0 mi WNW 12.7 mph 25.3 mph N/A   Overcast
5:55 PM 44.6 °F 37.2 °F 32.0 °F 61% 29.75 in 10.0 mi NW 17.3 mph 28.8 mph N/A   Overcast
6:15 PM 44.6 °F 37.8 °F 33.8 °F 66% 29.77 in 10.0 mi NW 15.0 mph 20.7 mph N/A   Overcast
6:35 PM 44.6 °F 38.4 °F 32.0 °F 61% 29.79 in 10.0 mi WNW 12.7 mph 27.6 mph N/A   Overcast
6:55 PM 44.6 °F 39.7 °F 32.0 °F 61% 29.81 in 10.0 mi WNW 9.2 mph 23.0 mph N/A   Overcast
7:15 PM 42.8 °F 34.8 °F 30.2 °F 61% 29.81 in 10.0 mi NW 17.3 mph 26.5 mph N/A   Overcast
7:35 PM 42.8 °F 36.6 °F 30.2 °F 61% 29.82 in 10.0 mi NW 11.5 mph - N/A   Overcast
7:55 PM 42.8 °F 37.5 °F 30.2 °F 61% 29.84 in 10.0 mi WNW 9.2 mph 21.9 mph N/A   Overcast
8:15 PM 42.8 °F 37.0 °F 30.2 °F 61% 29.87 in 10.0 mi West 10.4 mph 23.0 mph N/A   Mostly Cloudy
8:35 PM 41.0 °F 39.0 °F 28.4 °F 61% 29.89 in 10.0 mi NW 3.5 mph - N/A   Overcast
8:55 PM 42.8 °F 38.6 °F 28.4 °F 57% 29.91 in 10.0 mi West 6.9 mph 18.4 mph N/A   Overcast
9:15 PM 42.8 °F 38.0 °F 26.6 °F 53% 29.94 in 10.0 mi WNW 8.1 mph - N/A   Overcast
9:35 PM 42.8 °F 37.0 °F 26.6 °F 53% 29.95 in 10.0 mi WNW 10.4 mph 18.4 mph N/A   Overcast
9:55 PM 41.0 °F 39.0 °F 26.6 °F 57% 29.96 in 10.0 mi West 3.5 mph - N/A   Overcast
10:15 PM 39.2 °F - 30.2 °F 70% 29.97 in 10.0 mi Calm Calm - N/A   Partly Cloudy
10:35 PM 39.2 °F 31.6 °F 26.6 °F 61% 29.98 in 10.0 mi WNW 12.7 mph 18.4 mph N/A   Clear
11:15 PM 37.4 °F 29.8 °F 30.2 °F 75% 30.01 in 10.0 mi South 11.5 mph - N/A   Mostly Cloudy
11:35 PM 35.6 °F 29.9 °F 30.2 °F 81% 30.02 in 10.0 mi South 6.9 mph - N/A   Overcast
11:55 PM 35.6 °F 30.7 °F 30.2 °F 81% 30.03 in 10.0 mi South 5.8 mph - N/A   Scattered Clouds